When you browse on this site, cookies collect data to enhance your experience and personalize the content and advertising you see.
Visit our Privacy Policy to learn more. By continuing to use the site, you agree to this use of cookies and data.
  • en France
  • Liste des pays
  • À 7 jours
  • Température de l'eau
  • Carte satellitaire
  • Carte météo
  • Widgets météo
  • user-avatar
    Se connecter

    Météo par heure à Marseille

    Ce jour, 22 Mai, Mercredi

    Heure Température Précipitation Vent Pression Humidité
    00:00 +17°C° 0 mm 6 m/s 756 mmHg 65%
    01:00 +17°C° 0 mm 6 m/s 756 mmHg 67%
    02:00 +16°C° 0 mm 5 m/s 756 mmHg 69%
    03:00 +16°C° 0 mm 5 m/s 756 mmHg 71%
    04:00 +17°C° 0 mm 4 m/s 756 mmHg 70%
    05:00 +17°C° 0 mm 4 m/s 756 mmHg 69%
    06:00 +17°C° 0 mm 4 m/s 756 mmHg 68%
    07:00 +19°C° 0 mm 3 m/s 756 mmHg 63%
    08:00 +20°C° 0 mm 3 m/s 757 mmHg 58%
    09:00 +22°C° 0 mm 3 m/s 757 mmHg 53%
    10:00 +22°C° 0 mm 3 m/s 757 mmHg 50%
    11:00 +24°C° 0 mm 3 m/s 757 mmHg 47%
    12:00 +25°C° 0 mm 4 m/s 757 mmHg 44%
    13:00 +25°C° 0 mm 4 m/s 757 mmHg 42%
    14:00 +26°C° 0 mm 4 m/s 757 mmHg 41%
    15:00 +26°C° 0 mm 5 m/s 757 mmHg 39%
    16:00 +26°C° 0 mm 5 m/s 757 mmHg 41%
    17:00 +24°C° 0 mm 6 m/s 757 mmHg 43%
    18:00 +24°C° 0 mm 6 m/s 757 mmHg 45%
    19:00 +23°C° 0 mm 6 m/s 757 mmHg 49%
    20:00 +22°C° 0 mm 5 m/s 757 mmHg 52%
    21:00 +21°C° 0 mm 5 m/s 758 mmHg 55%
    22:00 +20°C° 0 mm 4 m/s 758 mmHg 57%
    23:00 +19°C° 0 mm 4 m/s 758 mmHg 60%

    Demain, 23 Mai, Jeudi

    Heure Température Précipitation Vent Pression Humidité
    00:00 +19°C° 0 mm 3 m/s 758 mmHg 62%
    01:00 +18°C° 0 mm 3 m/s 758 mmHg 65%
    02:00 +18°C° 0 mm 3 m/s 758 mmHg 68%
    03:00 +18°C° 0 mm 2 m/s 758 mmHg 70%
    04:00 +18°C° 0 mm 2 m/s 758 mmHg 70%
    05:00 +18°C° 0 mm 2 m/s 758 mmHg 70%
    06:00 +19°C° 0 mm 1 m/s 758 mmHg 70%
    07:00 +20°C° 0 mm 1 m/s 758 mmHg 66%
    08:00 +22°C° 0 mm 1 m/s 758 mmHg 62%
    09:00 +23°C° 0 mm 1 m/s 758 mmHg 58%
    10:00 +24°C° 0 mm 2 m/s 758 mmHg 55%
    11:00 +24°C° 0 mm 2 m/s 758 mmHg 52%
    12:00 +25°C° 0 mm 3 m/s 758 mmHg 49%
    13:00 +25°C° 0 mm 3 m/s 758 mmHg 47%
    14:00 +25°C° 0 mm 3 m/s 758 mmHg 45%
    15:00 +25°C° 0 mm 4 m/s 757 mmHg 44%
    16:00 +25°C° 0 mm 4 m/s 757 mmHg 44%
    17:00 +24°C° 0 mm 3 m/s 757 mmHg 44%
    18:00 +24°C° 0 mm 3 m/s 757 mmHg 44%
    19:00 +22°C° 0 mm 3 m/s 757 mmHg 47%
    20:00 +21°C° 0 mm 3 m/s 757 mmHg 50%
    21:00 +20°C° 0 mm 2 m/s 758 mmHg 53%
    22:00 +19°C° 0 mm 2 m/s 758 mmHg 54%
    23:00 +20°C° 0 mm 1 m/s 757 mmHg 56%

    Après-demain, 24 Mai, Vendredi

    Heure Température Précipitation Vent Pression Humidité
    00:00 +20°C° 0 mm 1 m/s 757 mmHg 57%
    01:00 +20°C° 0 mm 1 m/s 757 mmHg 58%
    02:00 +19°C° 0 mm 1 m/s 757 mmHg 58%
    03:00 +19°C° 0 mm 1 m/s 756 mmHg 59%
    04:00 +19°C° 0 mm 1 m/s 756 mmHg 58%
    05:00 +20°C° 0 mm 1 m/s 756 mmHg 56%
    06:00 +18°C° 0 mm 0 m/s 756 mmHg 55%
    07:00 +19°C° 0 mm 0 m/s 756 mmHg 51%
    08:00 +23°C° 0 mm 1 m/s 756 mmHg 47%
    09:00 +24°C° 0 mm 1 m/s 756 mmHg 42%
    10:00 +25°C° 0 mm 1 m/s 756 mmHg 40%
    11:00 +26°C° 0 mm 2 m/s 756 mmHg 38%
    12:00 +26°C° 0 mm 3 m/s 756 mmHg 36%
    13:00 +26°C° 0 mm 3 m/s 756 mmHg 37%
    14:00 +26°C° 0 mm 3 m/s 756 mmHg 38%
    15:00 +27°C° 0 mm 3 m/s 755 mmHg 39%
    16:00 +26°C° 0 mm 3 m/s 755 mmHg 42%
    17:00 +25°C° 0 mm 3 m/s 755 mmHg 46%
    18:00 +24°C° 0 mm 3 m/s 755 mmHg 50%
    19:00 +23°C° 0 mm 2 m/s 755 mmHg 52%
    20:00 +21°C° 0 mm 2 m/s 755 mmHg 54%
    21:00 +22°C° 0 mm 1 m/s 756 mmHg 55%
    22:00 +21°C° 0 mm 1 m/s 756 mmHg 57%
    23:00 +21°C° 0 mm 1 m/s 755 mmHg 58%

    25 Mai, Samedi

    Heure Température Précipitation Vent Pression Humidité
    00:00 +21°C° 0 mm 1 m/s 755 mmHg 59%
    01:00 +21°C° 0 mm 1 m/s 755 mmHg 60%
    02:00 +20°C° 0 mm 1 m/s 755 mmHg 61%
    03:00 +20°C° 0 mm 1 m/s 755 mmHg 61%
    04:00 +20°C° 0 mm 1 m/s 755 mmHg 61%
    05:00 +20°C° 0 mm 1 m/s 755 mmHg 61%
    06:00 +21°C° 0 mm 1 m/s 756 mmHg 61%
    07:00 +21°C° 0 mm 2 m/s 756 mmHg 56%
    08:00 +23°C° 0 mm 2 m/s 756 mmHg 52%
    09:00 +24°C° 0 mm 2 m/s 756 mmHg 48%
    10:00 +25°C° 0 mm 2 m/s 756 mmHg 48%
    11:00 +25°C° 0 mm 3 m/s 757 mmHg 47%
    12:00 +26°C° 0 mm 4 m/s 757 mmHg 46%
    13:00 +25°C° 0 mm 4 m/s 756 mmHg 47%
    14:00 +25°C° 0 mm 4 m/s 756 mmHg 48%
    15:00 +25°C° 0 mm 4 m/s 756 mmHg 49%
    16:00 +25°C° 0 mm 3 m/s 756 mmHg 51%
    17:00 +24°C° 0 mm 3 m/s 756 mmHg 53%
    18:00 +24°C° 0 mm 3 m/s 756 mmHg 55%
    19:00 +23°C° 0 mm 2 m/s 757 mmHg 58%
    20:00 +21°C° 0 mm 2 m/s 757 mmHg 60%
    21:00 +20°C° 0 mm 2 m/s 758 mmHg 63%
    22:00 +21°C° 0 mm 1 m/s 757 mmHg 64%
    23:00 +21°C° 0 mm 1 m/s 757 mmHg 65%

    26 Mai, Dimanche

    Heure Température Précipitation Vent Pression Humidité
    00:00 +20°C° 0 mm 1 m/s 757 mmHg 66%
    01:00 +20°C° 0 mm 1 m/s 757 mmHg 68%
    02:00 +20°C° 0 mm 1 m/s 757 mmHg 69%
    03:00 +20°C° 0 mm 1 m/s 757 mmHg 70%
    04:00 +20°C° 0 mm 1 m/s 757 mmHg 69%
    05:00 +20°C° 0 mm 1 m/s 757 mmHg 68%
    06:00 +21°C° 0 mm 1 m/s 757 mmHg 67%
    07:00 +22°C° 0 mm 1 m/s 757 mmHg 62%
    08:00 +23°C° 0 mm 1 m/s 757 mmHg 57%
    09:00 +25°C° 0 mm 1 m/s 757 mmHg 52%
    10:00 +25°C° 0 mm 2 m/s 757 mmHg 50%
    11:00 +26°C° 0 mm 2 m/s 757 mmHg 49%
    12:00 +26°C° 0 mm 3 m/s 757 mmHg 47%
    13:00 +26°C° 0 mm 3 m/s 757 mmHg 46%
    14:00 +27°C° 0 mm 3 m/s 756 mmHg 45%
    15:00 +27°C° 0 mm 3 m/s 756 mmHg 45%
    16:00 +26°C° 0 mm 3 m/s 756 mmHg 47%
    17:00 +26°C° 0 mm 3 m/s 756 mmHg 50%
    18:00 +25°C° 0 mm 3 m/s 756 mmHg 52%
    19:00 +24°C° 0 mm 2 m/s 756 mmHg 55%
    20:00 +23°C° 0 mm 2 m/s 757 mmHg 58%
    21:00 +22°C° 0 mm 1 m/s 757 mmHg 61%
    22:00 +22°C° 0 mm 1 m/s 757 mmHg 63%
    23:00 +21°C° 0 mm 1 m/s 757 mmHg 64%

    27 Mai, Lundi

    Heure Température Précipitation Vent Pression Humidité
    00:00 +21°C° 0 mm 1 m/s 757 mmHg 66%
    01:00 +21°C° 0 mm 1 m/s 756 mmHg 67%
    02:00 +21°C° 0 mm 1 m/s 756 mmHg 68%
    03:00 +20°C° 0 mm 1 m/s 756 mmHg 69%
    04:00 +21°C° 0 mm 1 m/s 756 mmHg 68%
    05:00 +21°C° 0 mm 1 m/s 756 mmHg 67%
    06:00 +19°C° 0 mm 0 m/s 756 mmHg 66%
    07:00 +23°C° 0 mm 1 m/s 756 mmHg 61%
    08:00 +24°C° 0 mm 1 m/s 756 mmHg 56%
    09:00 +25°C° 0 mm 1 m/s 756 mmHg 52%
    10:00 +26°C° 0 mm 2 m/s 756 mmHg 49%
    11:00 +27°C° 0 mm 2 m/s 756 mmHg 46%
    12:00 +28°C° 0 mm 3 m/s 756 mmHg 44%
    13:00 +28°C° 0 mm 3 m/s 755 mmHg 44%
    14:00 +28°C° 0 mm 4 m/s 755 mmHg 44%
    15:00 +28°C° 0 mm 4 m/s 755 mmHg 43%
    16:00 +27°C° 0 mm 4 m/s 755 mmHg 45%
    17:00 +27°C° 0 mm 3 m/s 755 mmHg 47%
    18:00 +26°C° 0 mm 3 m/s 754 mmHg 49%
    19:00 +26°C° 0 mm 3 m/s 755 mmHg 51%
    20:00 +25°C° 0 mm 4 m/s 755 mmHg 54%
    21:00 +23°C° 0 mm 4 m/s 755 mmHg 56%
    22:00 +23°C° 0 mm 4 m/s 755 mmHg 59%
    23:00 +22°C° 0 mm 5 m/s 754 mmHg 61%
    Voir plus